Regional Weather Roundup
Issued by NWS

Home | Current Version | Previous Version | Text Only | Print | Product List | Glossary Off
Versions: 1 2 3 4 5 6 7 8 9 10 11 12 13 14 15 16 17 18 19 20 21 22 23 24 25 26 27 28 29 30 31 32 33 34 35 36 37 38 39 40 41 42 43 44 45 46 47 48 49 50

000
ASUS43 KIND 220209
RWRIN

WEATHER ROUNDUP FOR INDIANA
NATIONAL WEATHER SERVICE INDIANAPOLIS IN
1000 PM EDT THU AUG 21 2014

NOTE: "FAIR" INDICATES FEW OR NO CLOUDS BELOW 12,000 FEET WITH NO
SIGNIFICANT WEATHER AND/OR OBSTRUCTIONS TO VISIBILITY.

* - STATION DOES NOT REPORT WEATHER SUCH AS PRECIPITATION OR FOG.

+ - STATION NOT QUALITY CONTROLLED BY THE NATIONAL WEATHER SERVICE.
    USE DATA WITH CAUTION...ESPECIALLY DEWPOINT AND RELATIVE
    HUMIDITY OBSERVATIONS.

INZ001>003-010>013-019-020-220300-
NORTHWEST INDIANA

CITY           SKY/WX    TMP DP  RH WIND       PRES   REMARKS
GARY /AIRPORT/ CLOUDY    73  72  94 S6        29.93R
KNOX *+        CLOUDY    70  67  91 S5        29.94R
LA PORTE +     MOCLDY    71  71 100 CALM      29.96R
MICHIGAN CITY+ PTCLDY    72  72 100 CALM      29.95R
MONTICELLO +   CLOUDY    71  70  98 S6        29.95R
RENSSELAER +   CLOUDY    72  72 100 CALM      29.95R
VALPARAISO     MOCLDY    72  71  97 CALM      29.95R

$$

LMZ046-743>745-220300-
SOUTHERN LAKE MICHIGAN

STATION/POSITION TIME  TEMP WIND        PRES
                       AIR  DIR/SP/G
                 (UTC) (F)  (DEG/KT/KT) (MB)
BURNS HARBOR     0200   74  180/  7/ 10   N/A
MICHIGAN CITY    0200   73  120/  7/ 10   N/A

$$

INZ004-005-014>016-021>024-220300-
NORTH CENTRAL INDIANA

CITY           SKY/WX    TMP DP  RH WIND       PRES   REMARKS
GOSHEN         CLOUDY    74  71  91 S3        29.96R
LOGANSPORT +   CLOUDY    68  68 100 SE5       29.98R
PERU/GRISSOM   LGT RAIN  69  69 100 SW7       29.99R
ROCHESTER +    CLOUDY    75  75 100 SE6       29.97R
SOUTH BEND     CLOUDY    73  70  90 S7        29.96R

$$

INZ006>009-017-018-025>027-220300-
NORTHEAST INDIANA

CITY           SKY/WX    TMP DP  RH WIND       PRES   REMARKS
ANGOLA *+      CLEAR     73  70  88 CALM      29.98R
AUBURN +       DRIZZLE   73  70  88 CALM      29.98S
FORT WAYNE     TSTM      71  68  90 SE14      29.96F FOG
HUNTINGTON +   CLOUDY    68  68  99 SE7       29.99S

$$

INZ028-029-035-036-043>045-051>053-220300-
WEST CENTRAL INDIANA

CITY           SKY/WX    TMP DP  RH WIND       PRES   REMARKS
GREENCASTLE +  MOCLDY    77  73  88 CALM      29.99R
LAFAYETTE      CLOUDY    73  71  93 SE6       29.96R
TERRE HAUTE    MOCLDY    79  74  84 S3        29.97R

$$

INZ030>032-037>040-046>048-054>057-064-065-220300-
CENTRAL INDIANA

CITY           SKY/WX    TMP DP  RH WIND       PRES   REMARKS
CP ATTERBURY + MOCLDY    79  73  83 CALM      30.00R
COLUMBUS       CLEAR     81  75  83 W6        29.97
FRANKFORT +    TSTM     N/A N/A N/A SW16G28   30.02R
INDIANAPOLIS   CLOUDY    80  75  84 S6        29.98R
-EAGLE CREEK   CLOUDY    81  74  79 SW5       29.97R
KOKOMO *+      CLOUDY    70  66  88 SE3       29.99S THUNDER
MARION +       RAIN      70  69  96 SW6       30.03R
MT COMFORT *+  CLOUDY    79  79 100 CALM      29.99R
SHELBYVILLE    CLOUDY    79  74  84 S6        29.99R
ZIONSVILLE +   TSTM      74  65  74 N16G23    30.02R

$$

INZ033-034-041-042-049-050-058-059-220300-
EAST CENTRAL INDIANA

CITY           SKY/WX    TMP DP  RH WIND       PRES   REMARKS
MUNCIE         TSTM      70  67  90 N20G35    30.07R VSB 3/4

$$

INZ060-061-067>069-081>083-085>088-220300-
SOUTHWEST INDIANA

CITY           SKY/WX    TMP DP  RH WIND       PRES   REMARKS
EVANSVILLE     PTCLDY    83  71  67 SW6       29.99R
WASHINGTON +   CLEAR     78  74  86 SW5       29.97S

$$

INZ062-063-066-070>080-084-089>092-220300-
SOUTH CENTRAL AND SOUTHEAST INDIANA

CITY           SKY/WX    TMP DP  RH WIND       PRES   REMARKS
BEDFORD +      PTCLDY    79  72  78 SE3       30.00R
BLOOMINGTON    PTCLDY    75  73  93 SW3       29.99R
SEYMOUR +      PTCLDY    72  63  73 S6        30.00

$$




USA.gov is the U.S. government's official web portal to all federal, state and local government web resources and services.